Regional Weather Roundup
Issued by NWS

Home | Current Version | Previous Version | Text Only | Print | Product List | Glossary On
Versions: 1 2 3 4 5 6 7 8 9 10 11 12 13 14 15 16 17 18 19 20 21 22 23 24 25 26 27 28 29 30 31 32 33 34 35 36 37 38 39 40 41 42 43 44 45 46 47 48 49 50
000
ASUS44 KMEG 231500
RWRTN
TENNESSEE HOURLY STATE WEATHER ROUNDUP
NATIONAL WEATHER SERVICE MEMPHIS TN
1000 AM CDT TUE MAY 23 2017

TNZ002-004-019-021-049-052-054-088>092-231600-
WEST TENNESSEE

CITY           SKY/WX    TMP DP  RH WIND       PRES   REMARKS
MEMPHIS INTL   CLOUDY    70  59  68 W6        29.80S
NWS MEMPHIS      N/A     70 N/A N/A MISG        N/A
JACKSON        CLOUDY    72  60  66 VRB5      29.79F
DYERSBURG      CLOUDY    70  58  65 NW3       29.80S
$$

TNZ008-025-027-028-033-062-065-066-231600-
NORTH MIDDLE TENNESSEE

CITY           SKY/WX    TMP DP  RH WIND       PRES   REMARKS
NASHVILLE      PTSUNNY   72  58  61 CALM      29.78F
CLARKSVILLE    CLOUDY    69  55  60 NW3       29.79F
SMYRNA           N/A    N/A N/A N/A MISG        N/A
CROSSVILLE     CLOUDY    63  57  81 SE6       29.82F
$$

TNZ061-075-076-078-094-096-097-231600-
SOUTH MIDDLE TENNESSEE

CITY           SKY/WX    TMP DP  RH WIND       PRES   REMARKS
WINCHESTER     CLOUDY    66  64  94 E3          N/A
$$

TNZ017-018-042-046-047-231600-
NORTHEAST TENNESSEE

CITY           SKY/WX    TMP DP  RH WIND       PRES   REMARKS
TRI CITIES     CLOUDY    66  61  84 CALM      29.83F
$$

TNZ012-013-036-069-073-074-231600-
CENTRAL EAST TENNESSEE

CITY           SKY/WX    TMP DP  RH WIND       PRES   REMARKS
KNOXVILLE      CLOUDY    65  62  90 NW6       29.80S
OAK RIDGE      CLOUDY    66  59  78 CALM      29.81F
GATLINBURG     CLOUDY    63  61  94 CALM      29.80F
$$

TNZ083-085-099-231600-
SOUTHEAST TENNESSEE

CITY           SKY/WX    TMP DP  RH WIND       PRES   REMARKS
CHATTANOOGA    LGT RAIN  65  63  93 CALM      29.80S FOG
$$

SKY/WX REPORTED AS FAIR MEANS FEW OR NO CLOUDS BELOW
12 THOUSAND FEET.





USA.gov is the U.S. government's official web portal to all federal, state and local government web resources and services.